User: anonymous   Login
Location: Unspecified
(0.0000°N, 0.0000°E)
Time: 08:04:45
(UTC+00:00)
Language:

UWE-1 - Orbit

View from above orbital plane
View from above orbital plane
View from above satellite
View from above satellite

Ground track
Ground track

The orbit data is extracted from the following two-line orbital elements,

1 28892U 05043C   19345.61464452  .00000079  00000-0  24111-4 0  9994
2 28892  97.9902 121.7596 0016912 153.3016 206.9061 14.63659179753310
Epoch (UTC): 11 December 2019 14:45:05
Eccentricity: 0.0016912
inclination: 97.9902°
perigee height: 669 km
apogee height: 693 km
right ascension of ascending node: 121.7596°
argument of perigee: 153.3016°
revolutions per day: 14.63659179
mean anomaly at epoch: 206.9061°
orbit number at epoch: 75331

The dashed part of the orbit path shows where the satellite is in the earth's shadow,  

DLR